Flag for Poland Weather past 2 weeks in Zielona Góra, Poland

Now
44 °F

Fog.


Feels Like: 44 °F
Forecast: 40 / 49 °F
Wind: 2 mph from West

Location: Zielona Gora

Current Time: Mar 26, 2015 at 11:29:43 PM

Latest Report: Mar 26, 2015 at 9:00 PM


Visibility: 3 mi

Pressure: 29.78 "Hg

Humidity: 87%

Dew point: 41 °F

Location of Zielona GóraLocation

Historic Weather in Zielona Góra — Graph

°F

Zielona Góra temperature yesterday

Maximum temperature yesterday: 62 °F (at 4:00 PM)
Minimum temperature yesterday: 41 °F (at 6:00 AM)
Average temperature yesterday: 52 °F

Past Weeks' High & Low Weather Summary

 TemperatureHumidityPressure
High62 °F (Mar 25, 4:00 PM)100% (Mar 14, 2:00 PM)30.56 "Hg (Mar 14, 2:00 PM)
Low28 °F (Mar 23, 6:00 AM)24% (Mar 18, 2:00 PM)29.68 "Hg (Mar 26, 11:00 AM)
Average42 °F66%30.22 "Hg
* Reported Mar 11 9:00 PM — Mar 26 9:00 PM, Zielona Góra, Weather by CustomWeather, © 2015

Note: Actual official high and low records may vary slightly from our data, if they occured in-between our weather recording intervals... More about our weather records

Advertising

Zielona Góra weather history for previous 24 hours

 ConditionsComfort  
Time TempWeatherWind HumidityBarometerVisibility
9:00 PM
Thu, Mar 26
44 °FFog.2 mph87%29.78 "Hg3 mi
8:00 PM45 °FFog.1 mph86%29.78 "Hg4 mi
7:00 PM45 °FFog.2 mph85%29.78 "Hg4 mi
6:00 PM45 °FFog.3 mph84%29.77 "Hg4 mi
5:00 PM46 °FFog.3 mph84%29.76 "Hg3 mi
4:00 PM46 °FFog.5 mph83%29.74 "Hg3 mi
3:00 PM47 °FFog.6 mph83%29.73 "Hg3 mi
2:00 PM49 °FFog.5 mph83%29.71 "Hg4 mi
1:00 PM51 °FOvercast.6 mph85%29.70 "Hg6 mi
12:00 PM53 °FOvercast.3 mph80%29.68 "Hg6 mi
11:00 AM53 °FOvercast.3 mph81%29.68 "Hg6 mi
10:00 AM51 °FFog.3 mph88%29.69 "Hg4 mi
9:00 AM50 °FLow clouds.2 mph93%29.69 "Hg3 mi
8:00 AM48 °FSprinkles. Overcast.3 mph94%29.70 "Hg3 mi
7:00 AM47 °FLight rain. Overcast.3 mph90%29.70 "Hg4 mi
6:00 AM48 °FLight rain. Overcast.5 mph80%29.70 "Hg5 mi
5:00 AM52 °FOvercast.5 mph62%29.69 "Hg9 mi
4:00 AM51 °FOvercast.5 mph63%29.69 "Hg9 mi
3:00 AM51 °FOvercast.3 mph63%29.69 "Hg9 mi
2:00 AM50 °FOvercast.3 mph63%29.70 "Hg9 mi
1:00 AM52 °FOvercast.5 mph59%29.71 "Hg9 mi
12:00 AM51 °FOvercast.3 mph60%29.72 "Hg6 mi
11:00 PM
Wed, Mar 25
53 °FOvercast.3 mph56%29.74 "Hg6 mi
Weather by CustomWeather, © 2015

See weather overviewHow to use our weather pages